This is the latest recevied weather packets stored in our database for station/object DM4XI-13. If no packets are shown the sender has not sent any weather packets the latest 10 day(s).
| Time | Temp. | Humidity | Pressure | Rain* | Wind** | Luminosity | Snow |
|---|---|---|---|---|---|---|---|
| 1778305976 | 8.89° C | 87% | 1016.6 hPa | 0 mm | 0 m/s | 89 W/m² | - |
| 1778305915 | 8.89° C | 88% | 1016.5 hPa | 0 mm | 0 m/s | 93 W/m² | - |
| 1778305853 | 8.89° C | 88% | 1016.4 hPa | 0 mm | 0.45 m/s, 359° | 106 W/m² | - |
| 1778305792 | 8.89° C | 88% | 1016.4 hPa | 0 mm | 0.45 m/s, 201° | 122 W/m² | - |
| 1778305731 | 8.89° C | 88% | 1016.4 hPa | 0 mm | 0 m/s | 111 W/m² | - |
| 1778305670 | 8.89° C | 88% | 1016.5 hPa | 0 mm | 0.45 m/s, 153° | 89 W/m² | - |
| 1778305609 | 8.89° C | 88% | 1016.5 hPa | 0 mm | 0 m/s | 83 W/m² | - |
| 1778305548 | 8.89° C | 88% | 1016.5 hPa | 0 mm | 0.45 m/s, 110° | 80 W/m² | - |
| 1778305487 | 8.89° C | 88% | 1016.4 hPa | 0 mm | 0.45 m/s, 106° | 78 W/m² | - |
| 1778305426 | 8.89° C | 88% | 1016.5 hPa | 0 mm | 0.45 m/s, 80° | 75 W/m² | - |
| 1778305365 | 8.89° C | 88% | 1016.4 hPa | 0 mm | 0 m/s | 74 W/m² | - |
| 1778305304 | 8.89° C | 88% | 1016.5 hPa | 0 mm | 0.45 m/s, 41° | 73 W/m² | - |
| 1778305243 | 8.89° C | 88% | 1016.4 hPa | 0 mm | 0 m/s | 74 W/m² | - |
| 1778305182 | 8.89° C | 88% | 1016.5 hPa | 0 mm | 0.45 m/s, 103° | 81 W/m² | - |
| 1778305121 | 8.89° C | 88% | 1016.4 hPa | 0 mm | 0 m/s | 83 W/m² | - |
| 1778305060 | 8.89° C | 88% | 1016.5 hPa | 0 mm | 0.45 m/s, 24° | 79 W/m² | - |
| 1778304999 | 8.89° C | 88% | 1016.4 hPa | 0 mm | 0.45 m/s, 23° | 77 W/m² | - |
| 1778304938 | 8.89° C | 88% | 1016.4 hPa | 0 mm | 0.45 m/s, 47° | 75 W/m² | - |
| 1778304877 | 8.89° C | 88% | 1016.4 hPa | 0 mm | 0 m/s | 72 W/m² | - |
| 1778304816 | 8.89° C | 88% | 1016.6 hPa | 0 mm | 0.45 m/s, 100° | 74 W/m² | - |
| 1778304755 | 8.89° C | 89% | 1016.4 hPa | 0 mm | 0.45 m/s, 85° | 83 W/m² | - |
| 1778304694 | 8.89° C | 89% | 1016.3 hPa | 0 mm | 0 m/s | 91 W/m² | - |
| 1778304632 | 8.89° C | 89% | 1016.3 hPa | 0 mm | 0.45 m/s, 75° | 89 W/m² | - |
| 1778304571 | 8.89° C | 88% | 1016.5 hPa | 0 mm | 0.45 m/s, 64° | 84 W/m² | - |
| 1778304511 | 8.89° C | 89% | 1016.3 hPa | 0 mm | 0.45 m/s, 46° | 78 W/m² | - |
* Rain latest hour (hover to see other rain measurements)
** Current wind speed in m/s (hover to see current wind gust speed)